(352487) = 2008 BZ50

Discovered at Mount Lemmon on 2008-01-30 by Mt. Lemmon Survey.

Orbit

Orbit type: Main Belt

Note: WebGL enabled browser required.

epoch2024-03-31.0
epoch JD2460400.5
perihelion date2024-03-12.88754
perihelion JD2460382.38754
argument of perihelion (°)150.86444
ascending node (°)325.85609
inclination (°)8.52794
eccentricity0.0043687
perihelion distance (AU)3.1057216
Tisserand w.r.t. Jupiter3.2
ΔV w.r.t. Earth (km/sec)11.2
semimajor axis (AU)3.1193490
mean anomaly (°)3.24030
mean daily motion (°/day)0.17889900
aphelion distance (AU)3.133
period (years)5.51
P-vector [x]-0.45266052
P-vector [y]0.78669740
P-vector [z]0.41976857
Q-vector [x]-0.88778987
Q-vector [y]-0.35367923
Q-vector [z]-0.29451679
absolute magnitude16.16
phase slope0.15
uncertainty0
referenceMPEC 2024-C46
observations used223
oppositions15
arc length (days)9859
first opposition used1997
last opposition used2024
residual rms (arc-secs)0.85
perturbers coarse indicatorM-v
perturbers precise indicator003Ek
first observation date used1997-02-06.0
last observation date used2024-02-04.0
computer nameMPCLINUX
JD of orbit computation2456760.656563
perihelion JD uncertainty (days)2.4195E-03
argument of perihelion uncertainty (°)4.3301E-04
ascending node uncertainty (°)3.9543E-05
inclination uncertainty (°)1.0742E-05
eccentricity uncertainty 6.4298E-08
perihelion distance uncertainty (AU)2.0205E-07
Minimum Orbit Intersection Distances (in AU)
for orbit epoch: 2460200.5, reference: E2024-C46
Mercury2.66646
Venus2.38766
Earth2.11866
Mars1.44654
Jupiter1.87034
Saturn5.98655
Uranus15.3422
Neptune26.7606

Observations

226 total observations over interval: 1997 02 06.32867 – 2024 02 04.244269
These data are available for download (format description).

Date (UT) J2000 RA J2000 Dec Magn Location Ref
1997 02 06.32867 10 23 36.26 +09 31 57.8 21.2 V 691 – Steward Observatory, Kitt Peak-Spacewatch MPS 288022
1997 02 06.35006 10 23 35.16 +09 32 00.7 21.1 V 691 – Steward Observatory, Kitt Peak-Spacewatch MPS 288022
1997 02 06.37142 10 23 34.21 +09 32 03.1 20.8 V 691 – Steward Observatory, Kitt Peak-Spacewatch MPS 288022
1997 02 10.45997 10 20 19.22 +09 39 50.6 20.9 V 691 – Steward Observatory, Kitt Peak-Spacewatch MPS 288022
2003 03 30.27192 12 28 49.52 -12 44 30.2 20.5 V 691 – Steward Observatory, Kitt Peak-Spacewatch MPS 288022
2003 03 30.30449 12 28 47.86 -12 44 24.4 20.8 V 691 – Steward Observatory, Kitt Peak-Spacewatch MPS 288022
2003 03 30.33548 12 28 46.31 -12 44 18.4 20.6 V 691 – Steward Observatory, Kitt Peak-Spacewatch MPS 288022
2005 09 13.23816 23 03 34.52 -01 02 20.5 20.6 V 691 – Steward Observatory, Kitt Peak-Spacewatch MPS 288022
2005 09 13.25559 23 03 33.66 -01 02 23.6 20.6 V 691 – Steward Observatory, Kitt Peak-Spacewatch MPS 288022
2005 09 13.27303 23 03 32.84 -01 02 26.6 20.5 V 691 – Steward Observatory, Kitt Peak-Spacewatch MPS 288022
2008 01 30.34458 10 23 11.86 +10 06 27.9 20.9 V G96 – Mt. Lemmon Survey MPS 286973
2008 01 30.35225 10 23 11.58 +10 06 28.8 21.3 V G96 – Mt. Lemmon Survey MPS 286973
2008 01 30.36574 10 23 10.96 +10 06 29.7 20.9 V G96 – Mt. Lemmon Survey MPS 286973
2008 01 30.37347 10 23 10.64 +10 06 30.0 20.3 V G96 – Mt. Lemmon Survey MPS 286973
2008 02 24.38079 10 02 58.05 +10 55 16.5 20.3 V G96 – Mt. Lemmon Survey MPS 286973
2008 02 24.38742 10 02 57.66 +10 55 17.5 19.9 V G96 – Mt. Lemmon Survey MPS 286973
2008 02 24.39410 10 02 57.37 +10 55 18.1 20.1 V G96 – Mt. Lemmon Survey MPS 286973
2008 02 24.40081 10 02 56.97 +10 55 18.9 20.5 V G96 – Mt. Lemmon Survey MPS 286973
2008 03 09.21719 09 52 03.18 +11 20 35.9 20.6 V G96 – Mt. Lemmon Survey MPS 286973
2008 03 09.22275 09 52 02.96 +11 20 36.7 20.5 V G96 – Mt. Lemmon Survey MPS 286973
2008 03 09.22835 09 52 02.67 +11 20 36.8 21.0 V G96 – Mt. Lemmon Survey MPS 286973
2008 03 09.23387 09 52 02.42 +11 20 37.5 20.8 V G96 – Mt. Lemmon Survey MPS 286974
2010 06 23.38230 21 11 59.71 -21 20 04.7 21.4 V G96 – Mt. Lemmon Survey MPS 335009
2010 06 23.38825 21 11 59.56 -21 20 04.6 20.9 V G96 – Mt. Lemmon Survey MPS 335009
2010 06 23.39422 21 11 59.42 -21 20 05.4 21.4 V G96 – Mt. Lemmon Survey MPS 335009
2010 06 23.40024 21 11 59.28 -21 20 05.7 20.9 V G96 – Mt. Lemmon Survey MPS 335009
2010 08 18.328318 20 31 40.811 -22 16 39.60 20.79 i F51 – Pan-STARRS 1, Haleakala MPS 365712
2010 08 18.350220 20 31 39.802 -22 16 39.72 20.74 r F51 – Pan-STARRS 1, Haleakala MPS 365712
2010 08 18.361252 20 31 39.292 -22 16 39.79 20.96 r F51 – Pan-STARRS 1, Haleakala MPS 365712
2011 10 23.29396 01 18 05.90 +20 01 53.0 20.7 V G96 – Mt. Lemmon Survey MPS 396398
2011 10 23.29876 01 18 05.72 +20 01 51.9 20.2 V G96 – Mt. Lemmon Survey MPS 396398
2011 10 23.30359 01 18 05.47 +20 01 50.7 20.1 V G96 – Mt. Lemmon Survey MPS 396398
2011 10 23.30836 01 18 05.22 +20 01 49.3 20.0 V G96 – Mt. Lemmon Survey MPS 396398
2013 01 12.34435 07 20 14.02 +29 49 32.3 20.4 V G96 – Mt. Lemmon Survey MPS 450979
2013 01 12.34984 07 20 13.70 +29 49 31.4 20.3 V G96 – Mt. Lemmon Survey MPS 450979
2013 01 12.35530 07 20 13.41 +29 49 31.6 20.9 V G96 – Mt. Lemmon Survey MPS 450979
2013 01 12.36079 07 20 13.05 +29 49 31.2 20.0 V G96 – Mt. Lemmon Survey MPS 450979
2013 02 02.23265 07 02 13.74 +29 20 59.7 20.9 V G96 – Mt. Lemmon Survey MPS 456325
2013 02 02.23660 07 02 13.56 +29 20 59.3 20.8 V G96 – Mt. Lemmon Survey MPS 456325
2013 02 02.24056 07 02 13.41 +29 20 58.5 20.7 V G96 – Mt. Lemmon Survey MPS 456325
2013 02 02.24446 07 02 13.23 +29 20 57.8 20.8 V G96 – Mt. Lemmon Survey MPS 456325
2014 04 05.37509 12 10 45.413 -10 34 47.58 20.6 w F51 – Pan-STARRS 1, Haleakala MPS 511042
2014 04 05.38629 12 10 44.877 -10 34 45.24 20.5 w F51 – Pan-STARRS 1, Haleakala MPS 511042
2014 04 05.40875 12 10 43.802 -10 34 40.30 20.5 w F51 – Pan-STARRS 1, Haleakala MPS 511042
2016 08 01.50863 23 24 29.38 -00 59 36.1 20.9 z T09 – Subaru Telescope, Maunakea MPS 2091475
2016 08 01.53302 23 24 28.79 -00 59 35.4 20.9 z T09 – Subaru Telescope, Maunakea MPS 2091475
2016 08 01.55470 23 24 28.27 -00 59 34.3 21.0 z T09 – Subaru Telescope, Maunakea MPS 2091475
2016 08 28.27049 23 08 33.72 -01 23 01.1 20.8 V G96 – Mt. Lemmon Survey MPS 727454
2016 08 28.27742 23 08 33.44 -01 23 02.1 20.4 V G96 – Mt. Lemmon Survey MPS 727454
2016 08 28.28448 23 08 33.08 -01 23 02.9 20.5 V G96 – Mt. Lemmon Survey MPS 727454
2016 08 28.29146 23 08 32.74 -01 23 04.1 20.6 V G96 – Mt. Lemmon Survey MPS 727454
2016 08 29.64989 23 07 30.08 -01 26 00.0 19.9 R D29 – Purple Mountain Observatory, XuYi Station MPS 727454
2016 08 29.66492 23 07 29.28 -01 26 02.8 21.1 R D29 – Purple Mountain Observatory, XuYi Station MPS 727454
2016 08 29.67994 23 07 28.60 -01 26 03.5 21.4 R D29 – Purple Mountain Observatory, XuYi Station MPS 727454
2016 09 25.25930 22 47 07.45 -02 35 24.4 20.5 V G96 – Mt. Lemmon Survey MPS 732165
2016 09 25.26358 22 47 07.21 -02 35 25.3 21.0 V G96 – Mt. Lemmon Survey MPS 732165
2016 09 25.26789 22 47 07.07 -02 35 26.6 20.9 V G96 – Mt. Lemmon Survey MPS 732165
2016 09 25.27214 22 47 06.88 -02 35 26.6 20.3 V G96 – Mt. Lemmon Survey MPS 732165
2016 10 06.25913 22 40 42.28 -03 00 16.0 20.6 V G96 – Mt. Lemmon Survey MPS 734101
2016 10 06.26341 22 40 42.12 -03 00 16.5 20.8 V G96 – Mt. Lemmon Survey MPS 734102
2016 10 06.26770 22 40 41.97 -03 00 16.5 21.7 V G96 – Mt. Lemmon Survey MPS 734102
2016 10 06.27198 22 40 41.85 -03 00 17.2 20.5 V G96 – Mt. Lemmon Survey MPS 734102
2017 11 21.31531 04 14 25.23 +33 45 19.2 20.3 G G96 – Mt. Lemmon Survey MPS 842590
2017 11 21.32103 04 14 24.90 +33 45 18.2 20.4 G G96 – Mt. Lemmon Survey MPS 842590
2017 11 21.32674 04 14 24.57 +33 45 17.7 20.4 G G96 – Mt. Lemmon Survey MPS 842590
2017 11 21.33246 04 14 24.22 +33 45 17.1 20.4 G G96 – Mt. Lemmon Survey MPS 842590
2019 01 13.65221 10 20 55.543 +11 22 02.75 21.2 w F51 – Pan-STARRS 1, Haleakala MPS 1370228
2019 01 13.65855 10 20 55.355 +11 22 03.07 21.0 w F51 – Pan-STARRS 1, Haleakala MPS 1370228
2019 02 04.41298 10 07 17.666 +11 48 10.98 20.6 w F51 – Pan-STARRS 1, Haleakala MPS 969527
2019 02 04.42461 10 07 17.094 +11 48 12.22 20.7 w F51 – Pan-STARRS 1, Haleakala MPS 969527
2019 02 04.43628 10 07 16.518 +11 48 13.70 20.8 w F51 – Pan-STARRS 1, Haleakala MPS 969527
2019 02 04.44803 10 07 15.937 +11 48 14.92 20.7 w F51 – Pan-STARRS 1, Haleakala MPS 969527
2019 02 05.37401 10 06 31.635 +11 50 00.53 20.5 w F52 – Pan-STARRS 2, Haleakala MPS 969527
2019 02 05.38617 10 06 31.018 +11 50 02.05 20.4 w F52 – Pan-STARRS 2, Haleakala MPS 969527
2019 02 05.39835 10 06 30.422 +11 50 03.44 20.7 w F52 – Pan-STARRS 2, Haleakala MPS 969527
2019 02 05.41060 10 06 29.806 +11 50 04.88 20.5 w F52 – Pan-STARRS 2, Haleakala MPS 969527
2019 02 09.44376 10 03 10.64 +11 58 03.5 20.9 G G96 – Mt. Lemmon Survey MPS 973772
2019 02 09.44936 10 03 10.35 +11 58 04.4 20.3 G G96 – Mt. Lemmon Survey MPS 973772
2019 02 09.45496 10 03 10.08 +11 58 05.1 20.1 G G96 – Mt. Lemmon Survey MPS 973772
2019 02 09.46056 10 03 09.72 +11 58 05.7 20.9 G G96 – Mt. Lemmon Survey MPS 973772
2019 02 11.30116 10 01 36.93 +12 01 51.6 20.5 G G96 – Mt. Lemmon Survey MPS 973772
2019 02 11.30677 10 01 36.63 +12 01 52.3 20.7 G G96 – Mt. Lemmon Survey MPS 973772
2019 02 11.31239 10 01 36.33 +12 01 53.3 20.4 G G96 – Mt. Lemmon Survey MPS 973772
2019 02 11.31802 10 01 36.05 +12 01 54.0 20.3 G G96 – Mt. Lemmon Survey MPS 973772
2020 03 24.56964 15 09 37.231 -28 50 29.38 21.2 w F51 – Pan-STARRS 1, Haleakala MPS 1171316
2020 03 24.59073 15 09 36.862 -28 50 32.33 21.1 w F51 – Pan-STARRS 1, Haleakala MPS 1171316
2020 03 24.60119 15 09 36.650 -28 50 34.26 21.3 w F51 – Pan-STARRS 1, Haleakala MPS 1171316
2020 05 15.35338 14 33 49.559 -28 08 41.65 20.7 w F51 – Pan-STARRS 1, Haleakala MPS 1194530
2020 05 15.36376 14 33 49.035 -28 08 39.13 20.6 w F51 – Pan-STARRS 1, Haleakala MPS 1194530
2020 05 15.37417 14 33 48.512 -28 08 36.63 20.7 w F51 – Pan-STARRS 1, Haleakala MPS 1194530
2020 05 15.38459 14 33 47.989 -28 08 34.05 20.7 w F51 – Pan-STARRS 1, Haleakala MPS 1194530
2020 05 20.33152 14 29 57.040 -27 47 47.43 20.8 w F51 – Pan-STARRS 1, Haleakala MPS 1194530
